Flag for Taiwan Weather past 2 weeks in Taichung, Taiwan

Now
81 °F

Passing clouds.


Feels Like: 85 °F
Forecast: 80 / 92 °F
Wind: 13 mph from East

Location: Chiang Kai Shek

Current Time: Sep 30, 2014 at 9:55:45 PM

Latest Report: Sep 30, 2014 at 9:30 PM


Visibility: N/A

Pressure: 29.95 "Hg

Humidity: 74%

Dew point: 72 °F

Location of TaichungLocation

Historic Weather in Taichung — Graph

°F

Taichung temperature yesterday

Maximum temperature yesterday: 88 °F (at 2:00 PM)
Minimum temperature yesterday: 72 °F (at 3:00 AM)
Average temperature yesterday: 81 °F

Past Weeks' High & Low Weather Summary

 TemperatureHumidityPressure
High99 °F (Sep 18, 1:30 PM)94% (Sep 21, 10:30 PM)29.95 "Hg (Sep 21, 10:30 PM)
Low72 °F (Sep 29, 3:00 AM)37% (Sep 20, 11:00 AM)29.39 "Hg (Sep 21, 1:30 PM)
Average84 °F70%29.79 "Hg
* Reported Sep 15 8:01 PM — Sep 30 8:30 PM, Taichung, Weather by CustomWeather, © 2014

Note: Actual official high and low records may vary slightly from our data, if they occured in-between our weather recording intervals... More about our weather records

Advertising

Taichung weather history for previous 24 hours

 ConditionsComfort  
Time TempWeatherWind HumidityBarometerVisibility
8:30 PM
Sep 30
81 °FPassing clouds.22 mph79%29.92 "HgN/A
8:00 PM81 °FPassing clouds.18 mph79%29.92 "HgN/A
7:48 PM81 °FPassing clouds.24 mph79%29.92 "HgN/A
7:30 PM81 °FPassing clouds.24 mph79%29.92 "HgN/A
7:00 PM81 °FPassing clouds.25 mph79%29.89 "HgN/A
6:30 PM81 °FPassing clouds.26 mph84%29.89 "HgN/A
6:00 PM81 °FPassing clouds.25 mph79%29.89 "HgN/A
5:30 PM82 °FPassing clouds.21 mph70%29.89 "HgN/A
5:00 PM82 °FPassing clouds.26 mph74%29.86 "HgN/A
4:30 PM84 °FPassing clouds.28 mph70%29.86 "HgN/A
4:00 PM84 °FPassing clouds.26 mph70%29.86 "HgN/A
3:30 PM86 °FPassing clouds.29 mph66%29.83 "HgN/A
3:00 PM86 °FPassing clouds.25 mph66%29.83 "HgN/A
2:30 PM86 °FPassing clouds.29 mph66%29.83 "HgN/A
2:00 PM86 °FPassing clouds.25 mph66%29.83 "HgN/A
1:30 PM88 °FPassing clouds.28 mph66%29.83 "HgN/A
1:00 PM88 °FPassing clouds.22 mph66%29.83 "HgN/A
12:30 PM88 °FPassing clouds.23 mph70%29.86 "HgN/A
12:00 PM90 °FPassing clouds.21 mph67%29.86 "HgN/A
11:30 AM90 °FPassing clouds.14 mph55%29.86 "HgN/A
11:00 AM88 °FPassing clouds.9 mph62%29.89 "Hg5 mi
10:30 AM86 °FPassing clouds.9 mph62%29.89 "Hg5 mi
10:00 AM86 °FPassing clouds.9 mph62%29.92 "Hg5 mi
9:30 AM86 °FPassing clouds.8 mph62%29.92 "Hg5 mi
9:00 AM84 °FScattered clouds.9 mph66%29.92 "Hg5 mi
8:30 AM84 °FScattered clouds.5 mph62%29.92 "Hg5 mi
8:00 AM82 °FPassing clouds.3 mph66%29.89 "Hg5 mi
7:30 AM82 °FPassing clouds.6 mph62%29.89 "Hg5 mi
7:00 AM79 °FPassing clouds.3 mph70%29.89 "Hg4 mi
6:30 AM79 °FPassing clouds.3 mph74%29.86 "Hg4 mi
6:00 AM77 °FPassing clouds.5 mph79%29.86 "Hg4 mi
5:30 AM75 °FPassing clouds.5 mph83%29.86 "Hg5 mi
5:00 AM77 °FPassing clouds.5 mph79%29.86 "Hg5 mi
4:30 AM77 °FPassing clouds.6 mph83%29.86 "Hg5 mi
4:00 AM77 °FPassing clouds.6 mph83%29.83 "Hg4 mi
3:30 AM75 °FPassing clouds.3 mph89%29.83 "Hg4 mi
3:00 AM77 °FPassing clouds.5 mph83%29.83 "Hg4 mi
2:30 AM75 °FPassing clouds.5 mph83%29.83 "Hg4 mi
2:00 AM77 °FPassing clouds.3 mph83%29.83 "Hg5 mi
1:30 AM75 °FPassing clouds.3 mph89%29.83 "Hg4 mi
1:00 AM79 °FPassing clouds.1 mph84%29.83 "Hg4 mi
12:30 AM81 °FPassing clouds.1 mph74%29.83 "Hg4 mi
12:00 AM82 °FPassing clouds.5 mph70%29.83 "Hg5 mi
11:30 PM
Sep 29
79 °FPassing clouds.7 mph79%29.83 "Hg5 mi
11:00 PM81 °FPassing clouds.9 mph74%29.83 "Hg5 mi
10:30 PM82 °FPassing clouds.3 mph74%29.83 "Hg5 mi
10:00 PM81 °FPassing clouds.3 mph79%29.83 "Hg5 mi
9:30 PM84 °FPassing clouds.5 mph70%29.83 "Hg5 mi
9:00 PM82 °FPassing clouds.6 mph74%29.83 "Hg5 mi
Weather by CustomWeather, © 2014

See weather overviewHow to use our weather pages